Location: Kuppenheim
(48.8299°N, 8.2568°E)
Time: 10:18:39
(UTC+00:00)

Cosmos 990 Rocket - Pass Details

Date: 20 June 2021
Orbit: 747 x 768 km, 74.0° (Epoch: 01 August)

Event Time Altitude Azimuth Distance (km) Brightness Sun altitude
Rises 00:12:14 0° 334° (NNW) 3,227 8.1 -17.1°
Reaches altitude 10° 00:14:38 10° 332° (NNW) 2,294 7.2 -17.0°
Maximum altitude 00:19:47 68° 251° (WSW) 815 4.0 -16.8°
Enters shadow 00:22:32 27° 176° (S) 1,405 4.8 -16.7°
